Location: Unspecified
(0.0000°N, 0.0000°E)
Time: 01:23:51
(UTC+00:00)

Explorer 11/Cluster Stage 4 - Pass Details

Date: 26 November 2019
Orbit: 467 x 1259 km, 28.8° (Epoch: 11 December)

Event Time Altitude Azimuth Distance (km) Brightness Sun altitude
Rises 02:01:27 0° 282° (WNW) 3,979 - -51.1°
Reaches altitude 10° 02:04:22 10° 275° (W) 3,100 - -50.5°
Maximum altitude 02:11:39 39° 209° (SSW) 1,783 - -49.0°
Exits shadow 02:16:11 23° 156° (SSE) 2,410 9.3 -48.0°
Drops below altitude 10° 02:19:12 10° 143° (SE) 3,213 10.2 -47.4°
Sets 02:22:19 0° 135° (SE) 4,137 11.0 -46.7°
